Profil Rumah Sakit

RSUD DR DRADJAT PRAWIRANEGARA

Ketersediaan Tempat Tidur

No Kelas Rawat Nama Ruang Kapasitas Tersedia Tglupdate
Umum Laki-laki Perempuan
1 NON ANAK (BAYI) 40 0 0 0 2017-07-24 09:03:38
2 NON PENYAKIT DALAM 30 0 0 0 2017-07-24 08:37:55
3 VVIP VVIP 2 0 0 0 2016-08-07 06:26:24
4 VIP VIP 39 0 0 0 2016-08-07 06:26:34
5 UTAMA UTAMA 17 0 0 0 2016-08-07 06:27:05
6 KELAS I OBGYN 4 0 0 0 2016-08-07 06:27:56
7 KELAS I SYARAF DAN BEDAH SYARAF 8 0 0 0 2016-08-07 06:28:41
8 KELAS I COBA 100 1 0 0 2017-07-24 08:34:13
9 KELAS I ANAK 4 0 0 0 2016-08-07 06:28:08
10 KELAS I BEDAH UMUM, BEDAH ORTHOPEDI, MATA, THT 18 0 0 0 2016-08-07 06:28:57
11 KELAS I PENYAKIT DALAM, JANTUNG, PARU 24 0 0 0 2016-08-07 06:28:25
12 KELAS I ANGGUR LT2 - ANAK 20 0 0 0 2016-10-26 03:01:36
13 KELAS II SYARAF DAN BEDAH SYARAF 11 0 0 0 2016-08-07 06:30:14
14 KELAS II ANAK 15 0 0 0 2016-08-07 06:29:39
15 KELAS II BEDAH UMUM, BEDAH ORTHOPEDI, MATA, THT 20 0 0 0 2016-08-07 06:30:26
16 KELAS II PENYAKIT DALAM, JANTUNG, PARU 24 0 0 0 2016-08-07 06:29:59
17 KELAS II OBGYN 10 0 0 0 2017-07-24 08:29:58
18 KELAS II TES 1 0 0 0 2016-08-08 02:00:36
19 KELAS III ANAK 20 0 0 0 2016-08-07 06:31:07
20 KELAS III BEDAH UMUM, BEDAH ORTHOPEDI, MATA, THT 48 0 0 0 2016-08-07 06:31:51
21 KELAS III PENYAKIT DALAM, JANTUNG, PARU 50 0 0 0 2016-08-07 06:31:24
22 KELAS III OBGYN 16 0 0 0 2016-08-07 06:30:56
23 KELAS III SYARAF DAN BEDAH SYARAF 10 0 0 0 2016-08-07 06:31:37
24 ICU ICU 7 0 0 0 2016-08-07 06:32:06
25 NICU NICU 4 0 0 0 2016-08-07 06:32:37
26 IGD OBGYN DAN ANAK 4 0 0 0 2016-09-07 08:06:45
27 IGD GABUNGAN 40 0 0 0 2016-09-07 08:06:10
28 BERSALIN OBGYN 12 0 0 0 2016-08-07 06:33:03
29 HCU HCU 4 0 0 0 2016-08-07 06:32:21
30 ISOLASI PARU (FLU BURUNG) 2 0 0 0 2016-08-07 06:33:33
31 ISOLASI ANAK (DIPTERI) 2 0 0 0 2016-08-07 06:33:48
* Informasi dapat berubah pada saat peserta sampai di Rumah Sakit.
* Kolom tersedia adalah jumlah bed tersedia secara umum, baik laki-laki, perempuan, infeksi, non infeksi, dll.
* Kolom tersedia (laki-laki) adalah jumlah bed tersedia khusus untuk pasien laki-laki.
* Kolom tersedia (perempuan) adalah jumlah bed tersedia khusus untuk pasien perempuan.

Sarana

No Nama Sarana Nama Fasilitas Jumlah Total Jumlah Baik Jumlah Rusak Tgl Update
1 BEDAH MULUT ADA 1 1 0 2016-09-07 08:12:38
2 CT SCANN ADA 1 1 0 2016-09-07 08:10:00
3 FARMASI ADA 1 1 0 2016-09-07 08:11:21
4 HEMODIALISA HEMODIALISA 3 3 0 2016-10-26 03:17:03
5 HEMODIALISA ADA 30 30 0 2016-09-07 08:11:04
6 LABORATORIUM PK ADA 1 1 0 2016-09-07 08:09:29
7 ORTHODONSI ADA 1 1 0 2016-09-07 08:12:25
8 PELAYANAN AMBULAN ADA 10 10 0 2016-09-07 08:11:53
9 PELAYANAN DARAH ADA 1 1 0 2016-09-07 08:11:34
10 PEMULASARAN JENAZAH ADA 1 1 0 2016-09-07 08:12:09
11 RADIOLOGI ADA 1 1 0 2016-09-07 08:09:44
12 REKAM MEDIS ADA 1 1 0 2016-09-07 08:09:11

Jadwal Poli

No Nama Poli Jadwal Poli Jam Pelayanan Dokter Tgl Update
1 Mata Senin 08:00 - 14:00 dr. iqbal 2016-10-26 03:13:36
2 Mata Rabu 08:00 - 14:00 dr. iqbal 2016-10-26 03:14:41